Regional Weather Roundup
Issued by NWS Jackson, KY

Home | Current Version | Previous Version | Graphics & Text | Print | Product List | Glossary On
Versions: 1 2 3 4 5 6 7 8 9 10 11 12 13 14 15 16 17 18 19 20 21 22 23 24 25 26 27 28 29 30 31 32 33 34 35 36 37 38 39 40 41 42 43 44 45 46 47 48 49 50
000
ASUS43 KJKL 230719
RWRJKL

EAST KENTUCKY HOURLY WEATHER ROUNDUP
NATIONAL WEATHER SERVICE JACKSON KY
300 AM EDT WED JUL 23 2014

NOTE: "FAIR" INDICATES FEW OR NO CLOUDS BELOW 12,000 FEET WITH
NO SIGNIFICANT WEATHER AND/OR OBSTRUCTIONS TO VISIBILITY.

* THESE REPORTS ARE NOT UNDER NWS QUALITY CONTROL AND MAY NOT
  REPORT WEATHER SUCH AS PRECIPITATION AND FOG.

KYZ079-080-083-085-087-088-110-112-115-119-120-230800
...EASTERN KENTUCKY...

CITY           SKY/WX    TMP DP  RH WIND       PRES   REMARKS
JACKSON        PTCLDY    73  70  90 CALM      30.09F
LONDON         PTCLDY    73  70  90 CALM      30.09F
SOMERSET*      CLEAR     72  72 100 CALM      30.08F FOG
MONTICELLO*    PTCLDY    72  71  96 CALM      30.09F FOG
WILLIAMSBURG*    N/A     68  68 100 CALM      30.10S
MIDDLESBORO*   CLEAR     68  68  98 CALM      30.11S
HARLAN APT*    CLOUDY    68  68 100 MISG      30.12F VSB 3/4
BLACK MTN*       N/A     66  64  94 S6          N/A
PIKEVILLE APT* CLEAR     72  70  94 CALM      30.09F
BIG SANDY*     MOSUNNY   74  71  93 SW3       30.08S
MOREHEAD APT*    N/A     77  72  83 SW5       30.08S
ASHLAND*       MOCLDY    72  66  83 CALM      30.02S
$$

KYZ035-036-041-042-044-050-067-078-099-230800
...CENTRAL KENTUCKY...

CITY           SKY/WX    TMP DP  RH WIND       PRES   REMARKS
MT STERLING*   CLEAR     73  72  94 SW3       30.07S
FLEMING/MASON* CLEAR     73  70  88 S5        30.05F
DANVILLE*      CLEAR     72  70  94 S6        30.07F
RICHMOND*      CLEAR     75  70  83 S7        30.06F
LEXINGTON      CLEAR     75  70  84 S6        30.06S
FRANKFORT      CLEAR     73  70  90 CALM      30.03F
$$

KYZ091>093-OHZ055-061-077-WVZ005-015-034-035-042-230800
...SOUTHERN OHIO/WEST VIRGINIA...

CITY           SKY/WX    TMP DP  RH WIND       PRES   REMARKS
COVINGTON      MOCLDY    72  69  90 W3        30.04S
COLUMBUS       CLEAR     76  69  79 CALM      30.00F
DAYTON         MOCLDY    74  67  78 SW7       30.03F
WILMINGTON     CLEAR     71  67  87 CALM      30.04S
HUNTINGTON     CLEAR     71  70  96 CALM      30.03F
PINEVILLE*     CLEAR     68  68 100 MISG      30.17S
BECKLEY        CLEAR     68  63  84 CALM      30.16S
BLUEFIELD      CLEAR     70  63  78 W3        30.18F
$$

VAZ002-007-008-TNZ017-027-036-066-071-230800
...SOUTHWEST VIRGINIA/EAST TENNESSEE...

CITY           SKY/WX    TMP DP  RH WIND       PRES   REMARKS
WISE*          CLEAR     68  68 100 SW5       30.18F
JONESVILLE*      N/A     66  66 100 CALM      30.13F
ABINGDON*      CLEAR     68  67  97 CALM      30.15F
BRISTOL        CLEAR     71  66  84 CALM      30.12S
KNOXVILLE      MOCLDY    74  70  87 W6        30.08F
OAK RIDGE      MOCLDY    76  72  87 CALM      30.10F
CROSSVILLE     PTCLDY    71  67  87 CALM      30.15F
NASHVILLE      PTCLDY    75  72  90 S3        30.07F
$$

...KEY TO REMARKS...
VSB - VISIBILITY IN MILES
WCI - WIND CHILL INDEX
HX  - HEAT INDEX

$$



USA.gov is the U.S. government's official web portal to all federal, state and local government web resources and services.